Regional Weather Roundup
Issued by NWS Midland/Odessa, TX

Skip options and go directly to product.
Home | Oldest Version | Previous Version | Current Version | All | Text Only | Save Text | Print | Product List | Glossary On

Skip product version selection by date and time.   
871
ASUS44 KMAF 301810
RWRMAF
MIDLAND AREA WEATHER ROUNDUP
NATIONAL WEATHER SERVICE MIDLAND TX
100 PM CDT SAT APR 30 2016

...IN SOUTHWEST TEXAS AND SOUTHEAST NEW MEXICO...

CITY           SKY/WX    TMP DP  RH WIND       PRES   REMARKS
ALPINE         SUNNY     73  18  12 W18       29.96F
ANDREWS        FAIR      68  44  40 CALM      29.86F
ARTESIA        SUNNY     70  30  23 VRB3      29.82F
BIG SPRING     SUNNY     63  42  47 CALM      29.89F
CARLSBAD       SUNNY     75  25  15 W14G22    29.80F
DRYDEN           N/A     86  21   9 SW15      29.80F
FORT STOCKTON  SUNNY     77  28  16 VRB7      29.85F
GUAD PASS      SUNNY     68  25  19 W30G36    29.89F
HOBBS          MOSUNNY   66  37  34 VRB5      29.87F
MARFA          SUNNY     70  18  13 SW13G21   29.93F
MIDLAND AIRPK  SUNNY     71  44  38 SE7       29.86F
MIDLAND INTL   SUNNY     71  43  36 MISG      29.85F
ODESSA         SUNNY     71  40  32 S7        29.86F
PECOS          SUNNY     76  28  16 W5        29.83F
PRESIDIO       FAIR      79  21  11 S7        29.87F
SEMINOLE       SUNNY     66  44  45 NE5       29.88F
SNYDER           N/A     63  46  52 CALM      29.87F
WINK           SUNNY     73  33  23 VRB6      29.82F
$$
...OTHER STATIONS IN TEXAS...

CITY           SKY/WX    TMP DP  RH WIND       PRES   REMARKS
ABILENE        SUNNY     67  51  56 N9        29.86S
AMARILLO       CLOUDY    55  38  52 VRB7      29.91S
AUSTIN         PTSUNNY   77  66  68 NE13      29.77F
BROWNSVILLE    PTSUNNY   86  78  77 VRB5      29.66F HAZE
CORPUS CHRISTI PTSUNNY   92  69  47 NE7       29.67F
DALLAS FTW     PTSUNNY   70  59  68 NW13      29.79F
DEL RIO        SUNNY     86  37  17 VRB7      29.77F
EL PASO        MOSUNNY   70  26  19 W15G23    29.85F
HOUSTON INT    MOSUNNY   81  61  50 E8        29.71F
LUBBOCK        MOSUNNY   63  39  41 VRB7      29.87F
SAN ANGELO     SUNNY     72  49  44 W3        29.84F
SAN ANTONIO    MOSUNNY   81  62  52 NE12G20   29.77F
WACO           PTSUNNY   71  61  70 N9        29.80S
WICHITA FALLS  NOT AVBL
$$
...OTHER LOCATIONS IN NEW MEXICO...

CITY           SKY/WX    TMP DP  RH WIND       PRES   REMARKS
ALAMAGORDO     SUNNY     66  25  20 W12G17    29.86F
ALBUQUERQUE    PTSUNNY   60  32  34 N8G18     29.86F
CANNON AFB     PTSUNNY   57  39  51 VRB7      29.88S
CLOVIS         MOSUNNY   55  37  50 S3        29.91R
HOLLOMAN AFB   SUNNY     67  26  21 W12       29.84F
ROSWELL        MOSUNNY   72  31  22 SW13      29.81F
RUIDOSO          N/A     59  18  20 NW8       29.91F
SANTA FE       CLOUDY    52  37  56 VRB3      29.88F
TRUTH OR CONSE MOSUNNY   64  26  23 S9        29.85F
TUCUMCARI      PTSUNNY   56  39  53 NE8       29.89S
$$

USA.gov is the U.S. government's official web portal to all federal, state and local government web resources and services.